Weather History for Mosby, MO

Change the Weather History Date:

Saturday, April 20, 2013

  Actual Average (KMKC) Record (KMKC)
Temperature  
Mean Temperature 40 °F -  
Max Temperature 51 °F 65 °F 81 °F (2001)
Min Temperature 28 °F 46 °F 34 °F (2013)
Degree Days  
Heating Degree Days 26    
Growing Degree Days 0 (Base 50)    
Moisture  
Dew Point 29 °F    
Average Humidity 65    
Maximum Humidity 100    
Minimum Humidity 37    
Precipitation  
Precipitation 0.00 in - - ()
Sea Level Pressure  
Sea Level Pressure 30.20 in    
Wind  
Wind Speed 3 mph (East)    
Max Wind Speed 15 mph    
Max Gust Speed 20 mph    
Visibility 10 miles    
Events      
Averages and records for this station are not official NWS values.
T = Trace of Precipitation, MM = Missing Value Source: NWS Daily Summary

Daily Weather History Graph

Daily Weather History Graph

Search for Another Location

Airport:

Trip Planner

Search our weather history database for the weather conditions in past years. The results will help you decide how hot, cold, wet, or windy it might be!

Date:

Astronomy

Apr. 20, 2013 Rise Set
Actual Time 6:32 AM CDT 8:00 PM CDT
Civil Twilight 6:04 AM CDT 8:28 PM CDT
Nautical Twilight 5:30 AM CDT 9:02 PM CDT
Astronomical Twilight 4:55 AM CDT 9:37 PM CDT
Moon 2:46 PM CDT (4/20) 3:20 AM CDT (4/20)
Length of Visible Light 14h 23m
Length of Day
13h 27m
Waxing Gibbous, 71% of the Moon is Illuminated
Apr 20
Waxing Gibbous
Apr 25
Full
May 2
Last Quarter
May 9
New
May 17
First Quarter

Hourly Weather History & Observations

Time (CDT) Temp. Windchill Dew Point Humidity Pressure Visibility Wind Dir Wind Speed Gust Speed Precip Events Conditions
12:15 AM 33.8 °F - 32.0 °F 93% 30.11 in 10.0 mi Calm Calm - N/A   Clear
12:35 AM 32.0 °F - 30.2 °F 93% 30.12 in 10.0 mi Calm Calm - N/A   Clear
12:55 AM 32.0 °F - 32.0 °F 100% 30.12 in 10.0 mi Calm Calm - N/A   Clear
1:15 AM 32.0 °F - 32.0 °F 100% 30.13 in 10.0 mi Calm Calm - N/A   Clear
1:35 AM 32.0 °F - 32.0 °F 100% 30.13 in 10.0 mi Calm Calm - N/A   Clear
1:55 AM 32.0 °F - 32.0 °F 100% 30.13 in 10.0 mi Calm Calm - N/A   Clear
2:15 AM 32.0 °F - 30.2 °F 93% 30.13 in 10.0 mi Calm Calm - N/A   Clear
2:35 AM 32.0 °F - 30.2 °F 93% 30.14 in 10.0 mi Calm Calm - N/A   Clear
2:55 AM 32.0 °F - 30.2 °F 93% 30.15 in 10.0 mi Calm Calm - N/A   Clear
3:15 AM 32.0 °F - 30.2 °F 93% 30.15 in 10.0 mi Calm Calm - N/A   Clear
3:35 AM 32.0 °F - 30.2 °F 93% 30.15 in 10.0 mi Calm Calm - N/A   Clear
3:55 AM 30.2 °F - 30.2 °F 100% 30.16 in 10.0 mi Calm Calm - N/A   Clear
4:15 AM 30.2 °F 26.7 °F 28.4 °F 93% 30.16 in 10.0 mi North 3.5 mph - N/A   Clear
4:35 AM 28.4 °F - 28.4 °F 100% 30.17 in 10.0 mi Calm Calm - N/A   Clear
4:55 AM 30.2 °F - 28.4 °F 93% 30.17 in 10.0 mi Calm Calm - N/A   Clear
5:15 AM 30.2 °F - 28.4 °F 93% 30.17 in 10.0 mi Calm Calm - N/A   Clear
5:35 AM 30.2 °F - 28.4 °F 93% 30.18 in 10.0 mi Calm Calm - N/A   Clear
5:55 AM 30.2 °F - 28.4 °F 93% 30.19 in 10.0 mi Calm Calm - N/A   Unknown
6:15 AM 30.2 °F - 28.4 °F 93% 30.20 in 10.0 mi Calm Calm - N/A   Clear
6:35 AM 28.4 °F - 28.4 °F 100% 30.20 in 10.0 mi Calm Calm - N/A   Clear
6:55 AM 28.4 °F - 26.6 °F 93% 30.21 in 10.0 mi Calm Calm - N/A   Clear
7:15 AM 30.2 °F - 28.4 °F 93% 30.22 in 10.0 mi Calm Calm - N/A   Clear
7:35 AM 30.2 °F - 28.4 °F 93% 30.23 in 10.0 mi Calm Calm - N/A   Clear
7:55 AM 30.2 °F - 30.2 °F 100% 30.24 in 10.0 mi Calm Calm - N/A   Clear
8:15 AM 32.0 °F - 30.2 °F 93% 30.25 in 10.0 mi Calm Calm - N/A   Clear
8:35 AM 33.8 °F - 30.2 °F 87% 30.25 in 10.0 mi Calm Calm - N/A   Clear
8:55 AM 35.6 °F - 28.4 °F 75% 30.25 in 10.0 mi Calm Calm - N/A   Clear
9:15 AM 37.4 °F - 30.2 °F 75% 30.25 in 10.0 mi Calm Calm - N/A   Clear
9:35 AM 41.0 °F 36.4 °F 26.6 °F 57% 30.25 in 10.0 mi East 6.9 mph - N/A   Clear
9:55 AM 41.0 °F 38.0 °F 26.6 °F 57% 30.26 in 10.0 mi ESE 4.6 mph - N/A   Mostly Cloudy
10:15 AM 42.8 °F 41.1 °F 26.6 °F 53% 30.26 in 10.0 mi East 3.5 mph - N/A   Mostly Cloudy
10:35 AM 42.8 °F - 26.6 °F 53% 30.26 in 10.0 mi Calm Calm - N/A   Scattered Clouds
10:55 AM 42.8 °F 40.1 °F 26.6 °F 53% 30.27 in 10.0 mi SSE 4.6 mph - N/A   Clear
11:15 AM 44.6 °F 43.1 °F 26.6 °F 49% 30.27 in 10.0 mi East 3.5 mph - N/A   Clear
11:35 AM 44.6 °F 42.2 °F 28.4 °F 53% 30.27 in 10.0 mi East 4.6 mph - N/A   Unknown
11:55 AM 44.6 °F 43.1 °F 26.6 °F 49% 30.27 in 10.0 mi ESE 3.5 mph - N/A   Clear
12:15 PM 46.4 °F 41.9 °F 28.4 °F 50% 30.25 in 10.0 mi ESE 9.2 mph - N/A   Clear
12:35 PM 46.4 °F 42.4 °F 28.4 °F 50% 30.25 in 10.0 mi ESE 8.1 mph - N/A   Scattered Clouds
12:55 PM 46.4 °F 44.3 °F 26.6 °F 46% 30.24 in 10.0 mi ENE 4.6 mph - N/A   Scattered Clouds
1:15 PM 46.4 °F 42.4 °F 23.0 °F 40% 30.24 in 10.0 mi East 8.1 mph - N/A   Scattered Clouds
1:35 PM 48.2 °F - 24.8 °F 40% 30.22 in 10.0 mi East 8.1 mph - N/A   Scattered Clouds
1:55 PM 48.2 °F - 26.6 °F 43% 30.22 in 10.0 mi ENE 6.9 mph - N/A   Scattered Clouds
2:15 PM 50.0 °F - 28.4 °F 43% 30.22 in 10.0 mi East 5.8 mph - N/A   Scattered Clouds
2:35 PM 50.0 °F - 28.4 °F 43% 30.22 in 10.0 mi East 4.6 mph - N/A   Mostly Cloudy
2:55 PM 50.0 °F - 26.6 °F 40% 30.21 in 10.0 mi ESE 8.1 mph - N/A   Overcast
3:15 PM 51.8 °F - 26.6 °F 38% 30.20 in 10.0 mi SE 6.9 mph - N/A   Mostly Cloudy
3:35 PM 50.0 °F - 24.8 °F 37% 30.20 in 10.0 mi East 11.5 mph - N/A   Unknown
3:55 PM 51.8 °F - 26.6 °F 38% 30.19 in 10.0 mi East 9.2 mph - N/A   Scattered Clouds
4:15 PM 51.8 °F - 26.6 °F 38% 30.18 in 10.0 mi East 10.4 mph - N/A   Clear
4:35 PM 51.8 °F - 28.4 °F 41% 30.18 in 10.0 mi East 11.5 mph - N/A   Clear
4:55 PM 51.8 °F - 30.2 °F 44% 30.17 in 10.0 mi ESE 10.4 mph - N/A   Clear
5:15 PM 51.8 °F - 30.2 °F 44% 30.17 in 10.0 mi East 12.7 mph - N/A   Clear
5:35 PM 51.8 °F - 30.2 °F 44% 30.17 in 10.0 mi East 9.2 mph - N/A   Clear
5:55 PM 51.8 °F - 30.2 °F 44% 30.17 in 10.0 mi East 11.5 mph - N/A   Clear
6:15 PM 51.8 °F - 32.0 °F 47% 30.17 in 10.0 mi East 12.7 mph 16.1 mph N/A   Clear
6:35 PM 51.8 °F - 32.0 °F 47% 30.17 in 10.0 mi East 12.7 mph 16.1 mph N/A   Clear
6:55 PM 51.8 °F - 32.0 °F 47% 30.17 in 10.0 mi East 9.2 mph - N/A   Clear
7:15 PM 51.8 °F - 32.0 °F 47% 30.17 in 10.0 mi East 9.2 mph - N/A   Clear
7:35 PM 51.8 °F - 30.2 °F 44% 30.17 in 10.0 mi East 8.1 mph - N/A   Scattered Clouds
7:55 PM 50.0 °F - 32.0 °F 50% 30.18 in 10.0 mi East 5.8 mph - N/A   Scattered Clouds
8:15 PM 50.0 °F - 32.0 °F 50% 30.19 in 10.0 mi East 6.9 mph - N/A   Scattered Clouds
8:35 PM 50.0 °F - 32.0 °F 50% 30.19 in 10.0 mi East 5.8 mph - N/A   Clear
8:55 PM 50.0 °F - 32.0 °F 50% 30.20 in 10.0 mi East 5.8 mph - N/A   Scattered Clouds
9:15 PM 50.0 °F - 32.0 °F 50% 30.20 in 10.0 mi East 4.6 mph - N/A   Scattered Clouds
9:35 PM 50.0 °F - 32.0 °F 50% 30.21 in 10.0 mi East 6.9 mph - N/A   Mostly Cloudy
9:55 PM 50.0 °F - 32.0 °F 50% 30.21 in 10.0 mi East 8.1 mph - N/A   Overcast
10:15 PM 50.0 °F - 32.0 °F 50% 30.21 in 10.0 mi ESE 6.9 mph - N/A   Overcast
10:35 PM 50.0 °F - 32.0 °F 50% 30.21 in 10.0 mi ESE 6.9 mph - N/A   Mostly Cloudy
10:55 PM 50.0 °F - 32.0 °F 50% 30.18 in 10.0 mi East 15.0 mph 19.6 mph N/A   Scattered Clouds
11:15 PM 50.0 °F - 32.0 °F 50% 30.19 in 10.0 mi ESE 9.2 mph 18.4 mph N/A   Scattered Clouds
11:35 PM 50.0 °F - 32.0 °F 50% 30.19 in 10.0 mi ESE 8.1 mph - N/A   Clear
11:55 PM 50.0 °F - 32.0 °F 50% 30.19 in 10.0 mi ESE 9.2 mph - N/A   Clear